FW6157 Weather Reports


Display with metric or nautical units.
time (UTC)temp
F
wind
direction
speed
MPH
gust
MPH
rain 1hr
in
rain 24hr
in
rain mn
in
humidity
%
barometer
mb
20260506112522 62 0 0.0 1.0 0.00 0.00 0.00 93 1014.8
20260506112020 61 0 0.0 0.0 0.00 0.00 0.00 92 1014.7
20260506111541 61 0 0.0 0.0 0.00 0.00 0.00 91 1014.8
20260506111023 61 0 0.0 0.0 0.00 0.00 0.00 90 1014.8
20260506110530 62 0 0.0 0.0 0.00 0.00 0.00 90 1014.6
20260506110051 62 0 0.0 0.0 0.00 0.00 0.00 90 1014.6
20260506105523 62 0 0.0 0.0 0.00 0.00 0.00 90 1014.5
20260506105026 62 0 0.0 0.0 0.00 0.00 0.00 90 1014.5
20260506104543 62 0 0.0 0.0 0.00 0.00 0.00 90 1014.3
20260506104020 62 0 0.0 0.0 0.00 0.00 0.00 90 1014.2
20260506103520 62 0 0.0 1.0 0.00 0.00 0.00 90 1014.0
20260506103045 62 0 0.0 1.0 0.00 0.00 0.00 90 1014.1
20260506102520 62 0 0.0 1.0 0.00 0.00 0.00 90 1014.0
20260506102020 62 0 0.0 1.0 0.00 0.00 0.00 90 1014.0
20260506101548 62 0 0.0 1.0 0.00 0.00 0.00 90 1014.0
20260506101019 62 0 0.0 1.0 0.00 0.00 0.00 90 1014.0
20260506100519 62 0 0.0 1.0 0.00 0.00 0.00 90 1014.0
20260506100059 62 0 0.0 2.0 0.00 0.00 0.00 90 1014.0
20260506095525 62 0 0.0 3.0 0.00 0.00 0.00 90 1014.0
20260506095026 62 0 0.0 3.0 0.00 0.00 0.00 91 1014.0
20260506094540 62 0 0.0 1.0 0.00 0.00 0.00 91 1014.1
20260506094026 62 0 0.0 1.0 0.00 0.00 0.00 91 1014.2
20260506093522 62 0 0.0 1.0 0.00 0.00 0.00 91 1014.2
20260506093043 61 0 0.0 0.0 0.00 0.00 0.00 90 1014.3
20260506092523 61 0 0.0 0.0 0.00 0.00 0.00 90 1014.3
20260506092025 61 0 0.0 0.0 0.00 0.00 0.00 89 1014.2
20260506091538 61 0 0.0 0.0 0.00 0.00 0.00 89 1014.1
20260506091028 61 0 0.0 0.0 0.00 0.00 0.00 89 1014.1
20260506090522 61 0 0.0 1.0 0.00 0.00 0.00 89 1014.2
20260506090035 62 0 0.0 1.0 0.00 0.00 0.00 88 1014.2
20260506085526 62 0 0.0 1.0 0.00 0.00 0.00 88 1014.4
20260506085023 62 0 0.0 1.0 0.00 0.00 0.00 88 1014.5
20260506084554 62 0 0.0 1.0 0.00 0.00 0.00 88 1014.5
20260506084020 62 0 0.0 1.0 0.00 0.00 0.00 88 1014.5
20260506083520 62 0 0.0 1.0 0.00 0.00 0.00 88 1014.6
20260506083035 62 0 0.0 0.0 0.00 0.00 0.00 88 1014.6
20260506082526 63 0 0.0 0.0 0.00 0.00 0.00 88 1014.6
20260506082020 63 0 0.0 0.0 0.00 0.00 0.00 88 1014.7
20260506081541 63 0 0.0 0.0 0.00 0.00 0.00 88 1014.7
20260506081023 62 0 0.0 0.0 0.00 0.00 0.00 87 1014.8
20260506080523 62 0 0.0 0.0 0.00 0.00 0.00 87 1014.8
20260506073524 63 0 0.0 0.0 0.00 0.00 0.00 85 1014.7
20260506073043 63 0 0.0 0.0 0.00 0.00 0.00 85 1014.5
20260506072520 63 0 0.0 0.0 0.00 0.00 0.00 85 1014.2
20260506072023 64 0 0.0 0.0 0.00 0.00 0.00 84 1014.1
20260506071537 64 0 0.0 0.0 0.00 0.00 0.00 84 1014.2
20260506071022 64 0 0.0 0.0 0.00 0.00 0.00 84 1014.2
20260506070524 64 0 0.0 0.0 0.00 0.00 0.00 84 1014.4
20260506062022 65 0 0.0 1.0 0.00 0.00 0.00 81 1014.3
20260506061537 65 0 0.0 2.0 0.00 0.00 0.00 81 1014.4
20260506061026 65 0 0.0 3.0 0.00 0.00 0.00 81 1014.2
20260506060523 65 0 0.0 3.0 0.00 0.00 0.00 81 1014.2
20260506051023 62 0 1.0 3.0 0.00 0.00 0.00 80 1014.9
20260506050519 62 0 0.0 5.0 0.00 0.00 0.00 79 1014.7
20260506045022 61 0 0.0 0.0 0.00 0.00 0.00 79 1014.5
20260506044618 61 0 0.0 0.0 0.00 0.00 0.00 79 1014.6
20260506044022 61 0 0.0 0.0 0.00 0.00 0.00 79 1014.7
20260506043520 61 0 0.0 0.0 0.00 0.00 0.00 79 1014.5
20260506043040 61 0 0.0 0.0 0.00 0.00 0.00 80 1014.4
20260506042523 61 0 0.0 0.0 0.00 0.00 0.00 79 1014.4
20260506042021 61 0 0.0 0.0 0.00 0.00 0.00 79 1014.5
20260506041534 61 0 0.0 0.0 0.00 0.00 0.00 79 1014.7
20260506041028 61 0 0.0 0.0 0.00 0.00 0.00 78 1014.7
20260506040519 61 0 0.0 0.0 0.00 0.00 0.00 78 1014.9
20260506040043 61 0 0.0 0.0 0.00 0.00 0.00 78 1014.7
20260506035519 61 0 0.0 0.0 0.00 0.00 0.00 78 1014.6
20260506035020 62 0 0.0 0.0 0.00 0.00 0.00 79 1014.6
20260506034602 62 0 0.0 0.0 0.00 0.00 0.00 78 1014.7
20260506034020 62 0 0.0 0.0 0.00 0.00 0.00 77 1014.6
20260506033519 62 0 0.0 0.0 0.00 0.00 0.00 76 1014.5
20260506033037 62 0 0.0 0.0 0.00 0.00 0.00 77 1014.4
20260506032523 62 0 0.0 0.0 0.00 0.00 0.00 75 1014.5
20260506032021 62 0 0.0 0.0 0.00 0.00 0.00 76 1014.5
20260506031540 62 0 0.0 0.0 0.00 0.00 0.00 76 1014.5
20260506031023 63 0 0.0 0.0 0.00 0.00 0.00 75 1014.7
20260506030522 63 0 0.0 0.0 0.00 0.00 0.00 74 1014.6
20260506030035 63 0 0.0 0.0 0.00 0.00 0.00 73 1014.6
20260506025522 63 0 0.0 0.0 0.00 0.00 0.00 74 1014.7
20260506025022 63 0 0.0 0.0 0.00 0.00 0.00 73 1014.9
20260506024544 63 0 0.0 0.0 0.00 0.00 0.00 73 1014.9
20260506024022 63 0 0.0 0.0 0.00 0.00 0.00 73 1015.0
20260506023523 64 0 0.0 0.0 0.00 0.00 0.00 72 1015.0
20260506023059 64 0 0.0 0.0 0.00 0.00 0.00 73 1015.1
20260506022522 64 0 0.0 0.0 0.00 0.00 0.00 72 1014.9
20260506022019 64 0 0.0 0.0 0.00 0.00 0.00 71 1014.8
20260506021536 64 0 0.0 0.0 0.00 0.00 0.00 71 1014.9
20260506021019 65 0 0.0 0.0 0.00 0.00 0.00 70 1014.9
20260506020518 65 0 0.0 0.0 0.00 0.00 0.00 69 1014.8
20260506020036 65 0 0.0 0.0 0.00 0.00 0.00 68 1014.8
20260506015521 65 0 0.0 0.0 0.00 0.00 0.00 67 1014.7
20260506015019 66 0 0.0 0.0 0.00 0.00 0.00 67 1014.7
20260506014542 66 0 0.0 0.0 0.00 0.00 0.00 67 1014.9
20260506014022 66 0 0.0 0.0 0.00 0.00 0.00 66 1014.9
20260506013522 67 0 0.0 0.0 0.00 0.00 0.00 65 1014.7
20260506013041 67 0 0.0 0.0 0.00 0.00 0.00 66 1014.7
20260506012523 67 0 0.0 0.0 0.00 0.00 0.00 64 1014.8
20260506012022 67 0 0.0 0.0 0.00 0.00 0.00 63 1014.7
20260506011539 68 0 0.0 0.0 0.00 0.00 0.00 62 1014.5
20260506011025 68 0 0.0 0.0 0.00 0.00 0.00 62 1014.7
20260506010519 69 0 0.0 0.0 0.00 0.00 0.00 62 1014.7
20260506010043 69 0 0.0 0.0 0.00 0.00 0.00 61 1014.8
20260506005523 70 0 0.0 0.0 0.00 0.00 0.00 60 1014.9
20260506005022 70 0 0.0 0.0 0.00 0.00 0.00 59 1014.9
20260506004557 71 0 0.0 0.0 0.00 0.00 0.00 57 1014.8
20260506004019 71 0 0.0 0.0 0.00 0.00 0.00 56 1014.7
20260506003521 71 0 0.0 0.0 0.00 0.00 0.00 55 1014.6
20260506003045 72 0 0.0 0.0 0.00 0.00 0.00 54 1014.5
20260506002520 72 0 0.0 0.0 0.00 0.00 0.00 53 1014.4
20260506002021 73 0 0.0 0.0 0.00 0.00 0.00 52 1014.4
20260506001541 73 0 0.0 0.0 0.00 0.00 0.00 52 1014.5
20260506001021 74 0 0.0 0.0 0.00 0.00 0.00 51 1014.5
20260506000521 74 0 0.0 0.0 0.00 0.00 0.00 52 1014.4
20260506000040 75 0 0.0 1.0 0.00 0.00 0.00 51 1014.5
20260505235520 75 0 0.0 1.0 0.00 0.00 0.00 49 1014.3
20260505235020 76 0 0.0 1.0 0.00 0.00 0.00 47 1014.2
20260505234557 76 0 0.0 0.0 0.00 0.00 0.00 47 1014.3
20260505234025 77 0 0.0 1.0 0.00 0.00 0.00 47 1014.2
20260505233525 77 0 0.0 4.0 0.00 0.00 0.00 45 1014.3
20260505233040 77 0 0.0 4.0 0.00 0.00 0.00 44 1014.1
20260505232522 77 171 0.0 4.0 0.00 0.00 0.00 42 1014.2
20260505232020 77 0 0.0 4.0 0.00 0.00 0.00 41 1014.2
20260505231537 78 0 0.0 3.0 0.00 0.00 0.00 41 1014.1
20260505231019 78 0 0.0 3.0 0.00 0.00 0.00 40 1014.0
20260505230520 78 0 0.0 5.0 0.00 0.00 0.00 39 1013.9
20260505230041 78 0 0.0 5.0 0.00 0.00 0.00 39 1013.9
20260505225524 78 0 0.0 4.0 0.00 0.00 0.00 39 1013.8
20260505225021 78 0 0.0 3.0 0.00 0.00 0.00 40 1013.9
20260505224539 79 203 0.0 5.0 0.00 0.00 0.00 40 1013.9
20260505224021 79 0 0.0 12.0 0.00 0.00 0.00 41 1014.0
20260505223520 79 196 1.0 12.0 0.00 0.00 0.00 40 1014.0
20260505223035 79 238 4.0 12.0 0.00 0.00 0.00 41 1014.0
20260505222524 79 188 1.0 10.0 0.00 0.00 0.00 43 1013.9
20260505222020 79 205 3.0 11.0 0.00 0.00 0.00 44 1014.0
20260505221535 80 179 2.0 11.0 0.00 0.00 0.00 45 1014.1
20260505221020 80 132 1.0 7.0 0.00 0.00 0.00 45 1014.1
20260505220520 80 167 2.0 7.0 0.00 0.00 0.00 45 1014.1
20260505220055 80 204 2.0 9.0 0.00 0.00 0.00 45 1014.1
20260505215520 80 175 1.0 12.0 0.00 0.00 0.00 44 1014.1
20260505215020 80 182 3.0 12.0 0.00 0.00 0.00 43 1014.1
20260505214540 80 0 0.0 3.0 0.00 0.00 0.00 47 1014.0
20260505214019 80 72 0.0 10.0 0.00 0.00 0.00 46 1013.9
20260505213519 80 0 2.0 10.0 0.00 0.00 0.00 45 1013.9
20260505213036 80 360 1.0 4.0 0.00 0.00 0.00 46 1014.1
20260505212520 80 227 1.0 4.0 0.00 0.00 0.00 46 1014.1
20260505212021 80 196 0.0 15.0 0.00 0.00 0.00 45 1014.1
20260505211545 80 191 1.0 16.0 0.00 0.00 0.00 46 1014.2
20260505211022 81 197 2.0 16.0 0.00 0.00 0.00 46 1014.1
20260505210520 81 196 1.0 6.0 0.00 0.00 0.00 45 1014.0
20260505210035 81 157 1.0 7.0 0.00 0.00 0.00 44 1014.1
20260505205523 81 0 0.0 7.0 0.00 0.00 0.00 45 1014.1
20260505205020 81 172 2.0 8.0 0.00 0.00 0.00 45 1014.2
20260505204539 81 0 2.0 10.0 0.00 0.00 0.00 45 1014.1
20260505204021 82 0 1.0 10.0 0.00 0.00 0.00 46 1014.2
20260505203522 82 186 2.0 10.0 0.00 0.00 0.00 44 1014.2
20260505203037 82 159 2.0 10.0 0.00 0.00 0.00 43 1014.4
20260505202521 82 0 2.0 10.0 0.00 0.00 0.00 47 1014.5
20260505202020 82 203 3.0 8.0 0.00 0.00 0.00 43 1014.6
20260505201537 82 168 1.0 8.0 0.00 0.00 0.00 45 1014.6
20260505201022 82 182 3.0 8.0 0.00 0.00 0.00 43 1014.6
20260505200522 83 0 1.0 8.0 0.00 0.00 0.00 45 1014.6
20260505200035 82 0 2.0 10.0 0.00 0.00 0.00 44 1014.7
20260505195521 82 205 2.0 10.0 0.00 0.00 0.00 44 1014.7
20260505195022 83 0 1.0 9.0 0.00 0.00 0.00 43 1014.8
20260505194540 83 177 2.0 9.0 0.00 0.00 0.00 43 1015.0
20260505194022 83 0 1.0 9.0 0.00 0.00 0.00 47 1015.0
20260505193521 83 137 1.0 9.0 0.00 0.00 0.00 44 1015.0
20260505193044 83 200 2.0 7.0 0.00 0.00 0.00 44 1015.1
20260505192523 82 180 2.0 7.0 0.00 0.00 0.00 46 1015.1
20260505192022 82 162 3.0 14.0 0.00 0.00 0.00 44 1015.1
20260505191550 82 197 2.0 14.0 0.00 0.00 0.00 45 1015.0
20260505191027 82 360 2.0 11.0 0.00 0.00 0.00 46 1015.1
20260505190521 82 194 3.0 11.0 0.00 0.00 0.00 45 1015.2
20260505190036 82 194 2.0 11.0 0.00 0.00 0.00 42 1015.4
20260505185521 82 0 0.0 10.0 0.00 0.00 0.00 46 1015.5
20260505185022 82 360 2.0 10.0 0.00 0.00 0.00 42 1015.5
20260505184535 82 186 2.0 8.0 0.00 0.00 0.00 44 1015.8
20260505184022 82 0 2.0 7.0 0.00 0.00 0.00 43 1015.9
20260505183523 82 15 0.0 10.0 0.00 0.00 0.00 45 1016.1
20260505183034 82 126 2.0 10.0 0.00 0.00 0.00 45 1016.1
20260505182522 82 192 2.0 8.0 0.00 0.00 0.00 47 1016.2
20260505182022 81 0 2.0 8.0 0.00 0.00 0.00 49 1016.3
20260505181538 81 179 1.0 6.0 0.00 0.00 0.00 49 1016.2
20260505181023 81 0 1.0 6.0 0.00 0.00 0.00 46 1016.2
20260505180521 81 174 1.0 5.0 0.00 0.00 0.00 48 1016.2
20260505180047 81 143 2.0 9.0 0.00 0.00 0.00 47 1016.2
20260505175520 81 188 1.0 9.0 0.00 0.00 0.00 48 1016.4
20260505175020 81 169 4.0 9.0 0.00 0.00 0.00 47 1016.5
20260505174544 81 206 3.0 10.0 0.00 0.00 0.00 48 1016.5
20260505174021 80 0 3.0 11.0 0.00 0.00 0.00 49 1016.5
20260505173519 80 205 2.0 12.0 0.00 0.00 0.00 50 1016.5
20260505173036 81 0 2.0 12.0 0.00 0.00 0.00 48 1016.5
20260505172519 80 168 3.0 12.0 0.00 0.00 0.00 49 1016.5
20260505172020 80 190 1.0 10.0 0.00 0.00 0.00 51 1016.6
20260505171536 80 183 2.0 10.0 0.00 0.00 0.00 50 1016.6
20260505171020 80 0 2.0 14.0 0.00 0.00 0.00 51 1016.6
20260505170519 80 302 1.0 14.0 0.00 0.00 0.00 51 1016.5
20260505170035 80 161 2.0 10.0 0.00 0.00 0.00 50 1016.7
20260505165523 80 198 3.0 10.0 0.00 0.00 0.00 51 1016.8
20260505165020 80 185 3.0 9.0 0.00 0.00 0.00 50 1016.8
20260505164540 79 212 1.0 9.0 0.00 0.00 0.00 52 1016.8
20260505164020 79 188 2.0 9.0 0.00 0.00 0.00 51 1016.7
20260505163520 79 192 2.0 8.0 0.00 0.00 0.00 55 1016.8
20260505163040 79 111 2.0 7.0 0.00 0.00 0.00 53 1016.8
20260505162519 78 200 0.0 5.0 0.00 0.00 0.00 55 1017.0
20260505162024 78 0 0.0 7.0 0.00 0.00 0.00 53 1016.9
20260505161535 78 0 0.0 7.0 0.00 0.00 0.00 55 1016.9
20260505161024 78 360 2.0 7.0 0.00 0.00 0.00 55 1017.0
20260505160523 77 186 1.0 7.0 0.00 0.00 0.00 56 1017.0
20260505153051 76 0 1.0 4.0 0.00 0.00 0.00 58 1017.1
20260505152524 76 238 1.0 7.0 0.00 0.00 0.00 57 1017.2
20260505152021 76 0 0.0 7.0 0.00 0.00 0.00 59 1017.2
20260505151545 75 360 1.0 6.0 0.00 0.00 0.00 60 1017.2
20260505151020 75 0 1.0 5.0 0.00 0.00 0.00 59 1017.2
20260505150524 74 159 1.0 6.0 0.00 0.00 0.00 59 1017.1
20260505140523 69 245 1.0 6.0 0.00 0.00 0.00 67 1016.7
20260505125024 58 0 0.0 3.0 0.00 0.00 0.00 93 1016.5
20260505124543 57 0 0.0 4.0 0.00 0.00 0.00 94 1016.6
20260505124024 56 190 1.0 4.0 0.00 0.00 0.00 95 1016.5
20260505123524 56 0 0.0 0.0 0.00 0.00 0.00 95 1016.6
20260505123058 55 0 0.0 0.0 0.00 0.00 0.00 95 1016.5
20260505122523 55 0 0.0 0.0 0.00 0.00 0.00 95 1016.6
20260505122023 54 0 0.0 0.0 0.00 0.00 0.00 95 1016.5
20260505121536 54 0 0.0 0.0 0.00 0.00 0.00 95 1016.5
20260505121020 53 0 0.0 0.0 0.00 0.00 0.00 95 1016.5
20260505120526 53 0 0.0 0.0 0.00 0.00 0.00 95 1016.3
20260505120035 52 0 0.0 0.0 0.00 0.00 0.00 95 1016.2
20260505115523 52 0 0.0 0.0 0.00 0.00 0.00 94 1016.2
20260505115023 52 0 0.0 0.0 0.00 0.00 0.00 94 1016.2
20260505114603 51 0 0.0 0.0 0.00 0.00 0.00 94 1016.1
20260505114024 51 0 0.0 0.0 0.00 0.00 0.00 94 1016.0
20260505113524 51 0 0.0 0.0 0.00 0.00 0.00 94 1015.9
20260505113040 51 0 0.0 0.0 0.00 0.00 0.00 93 1015.9